{"data":{"norad_id":56362,"intl_designator":"2023-058AX","name":"STARLINK-5972","alt_names":[],"object_type":"PAYLOAD","status":"ACTIVE","operator":null,"country":"US","launch_date":"2023-04-27","launch_site_code":"AFWTR","launch_vehicle":null,"mission":null,"orbit_class":"UNKNOWN","rcs_meters":null,"size_class":null,"mass_kg":null,"dimensions":null,"purposes":["comms"],"wikipedia_slug":null,"has_3d_model":false,"image_url":null,"decayed_at":null,"tle_current":{"epoch":"2026-09-20T22:45:57.769920Z","epoch_age_seconds":73223,"freshness":"FRESH","line1":"1 56362U 23058AX  26263.94858530  .00004747  00000+0  14928-3 0  9999","line2":"2 56362  97.2844 260.6962 0001602  91.1020 269.0407 15.33441483187708","mean_motion":15.33441483,"eccentricity":0.0001602,"inclination_deg":97.2844,"raan_deg":260.6962,"arg_perigee_deg":91.102,"mean_anomaly_deg":269.0407,"bstar":0.00014928,"rev_number":18770,"period_min":93.906420033897,"perigee_km":464.4572793754,"apogee_km":466.64999785602,"semimajor_km":6843.6906386157,"source":"CELESTRAK","updated_at":"2026-09-21T09:00:33.429833Z"}}}